Location: Saint-Palais-sur-Mer
(45.6429°N, 1.0859°W)
Time: 07:15:42
(UTC+02:00)

Vanguard 2 - Visible Passes

Search period start: 09 June 2026 00:00
Search period end: 19 June 2026 00:00
Orbit: 553 x 2894 km, 32.9° (Epoch: 8 June)

Date Brightness Start Highest point End Pass type
(mag) Time Alt. Az. Time Alt. Az. Time Alt. Az.
9 Jun 9.8 00:25:32 10° WSW 00:33:17 35° S 00:39:20 23° SSE visible
9 Jun 10.5 02:34:15 10° WSW 02:40:07 21° SW 02:40:07 21° SW visible
9 Jun 9.3 22:30:21 10° WSW 22:36:22 34° S 22:45:39 10° ESE visible
10 Jun 9.9 00:37:14 10° WSW 00:44:46 31° SSW 00:48:46 26° SSE visible
10 Jun 10.8 02:46:50 10° WSW 02:49:34 15° SW 02:49:34 15° SW visible
10 Jun 9.4 22:41:50 10° WSW 22:47:48 33° S 22:56:55 10° ESE visible
11 Jun 10.0 00:49:04 10° WSW 00:56:14 27° SSW 00:58:30 25° S visible
11 Jun 9.4 22:53:23 10° WSW 22:59:16 31° S 23:07:35 11° SE visible
12 Jun 10.2 01:01:04 10° WSW 01:07:42 22° SSW 01:08:25 22° SSW visible
12 Jun 9.6 23:05:02 10° WSW 23:10:44 28° S 23:17:38 14° SE visible
13 Jun 10.4 01:13:22 10° WSW 01:18:29 18° SSW 01:18:29 18° SSW visible
13 Jun 9.7 23:16:46 10° WSW 23:22:13 24° S 23:27:48 15° SSE visible
14 Jun 10.6 01:26:17 10° SW 01:28:39 13° SW 01:28:39 13° SW visible
14 Jun 9.9 23:28:40 10° WSW 23:33:42 21° SSW 23:38:03 15° SSE visible
15 Jun 10.1 23:40:49 10° SW 23:45:11 17° SSW 23:48:23 14° S visible
16 Jun 10.3 23:53:35 10° SW 23:56:40 13° SSW 23:58:46 12° S visible
